�N����,����,����,����,����,�C��,���x,�~����,�S�V����,�ő�u�ԕ���,,,
,,,,,,,,,����,����,����,�N��
yyyy/mm/dd,hh:mm:ss,(16),16����,m/s,��,%,mm,KW/�u,(16),16����,m/s,Time
2014/12/1,1:00:00,13,���k��,1.4,2,90.2,0,0,2,�k��,3,19
2014/12/1,2:00:00,13,���k��,1.5,2,91.6,0,0,14,�k��,2.8,5
2014/12/1,3:00:00,13,���k��,1.9,2.7,85.7,0,0,12,��,3,48
2014/12/1,4:00:00,13,���k��,2.1,2.5,87.5,0,0,13,���k��,2.7,58
2014/12/1,5:00:00,13,���k��,1.9,2.4,86.9,0,0,13,���k��,3.6,57
2014/12/1,6:00:00,15,�k�k��,1.3,2.3,86.2,0,0,13,���k��,3.4,1
2014/12/1,7:00:00,13,���k��,1.8,2.3,86.7,0,0.01,12,��,4.3,31
2014/12/1,8:00:00,12,��,2.8,3.2,83.6,0,0.04,13,���k��,4,58
2014/12/1,9:00:00,13,���k��,3.6,4,79.1,0,0.09,13,���k��,5.6,3
2014/12/1,10:00:00,14,�k��,2.4,4.9,76.1,0,0.13,14,�k��,5,50
2014/12/1,11:00:00,15,�k�k��,2.2,5.7,81.4,0,0.12,14,�k��,4.6,12
2014/12/1,12:00:00,14,�k��,1.9,5.7,83.7,0,0.12,15,�k�k��,3.3,0
2014/12/1,13:00:00,16,�k,1.2,5.4,89.7,0,0.08,15,�k�k��,2.5,11
2014/12/1,14:00:00,1,�k�k��,0.7,4.9,93.5,0,0.03,13,���k��,2.3,14
2014/12/1,15:00:00,2,�k��,0.7,4,97.4,2,0.01,3,���k��,2.7,43
2014/12/1,16:00:00,10,�É�,0.1,3.8,99.6,4.5,0.01,4,��,2,34
2014/12/1,17:00:00,13,���k��,2.6,3.9,99.9,3.5,0,13,���k��,3.8,52
2014/12/1,18:00:00,14,�k��,2.9,3.8,99.8,4.5,0,14,�k��,7.2,35
2014/12/1,19:00:00,14,�k��,2.9,4,99.3,3,0,14,�k��,6.1,17
2014/12/1,20:00:00,14,�k��,3.3,4.1,99.3,2,0,12,��,6.2,0
2014/12/1,21:00:00,14,�k��,4,4.2,98.4,0.5,0,14,�k��,6.7,57
2014/12/1,22:00:00,14,�k��,4.2,4.8,95.4,0.5,0,13,���k��,8.9,41
2014/12/1,23:00:00,13,���k��,2.6,4.9,95.5,0,0,9,��쐼,7.5,20
2014/12/1,0:00:00,14,�k��,2.3,4.9,95.3,0,0,11,���쐼,5.9,19
2014/12/2,1:00:00,12,��,2.2,3.8,97.2,0,0,14,�k��,4.6,10
2014/12/2,2:00:00,13,���k��,1.6,5.8,74.2,0,0,13,���k��,6.6,26
2014/12/2,3:00:00,11,���쐼,2,3.3,84.9,0,0,10,�쐼,5.7,59
2014/12/2,4:00:00,10,�쐼,3.9,5.2,68.5,0,0,10,�쐼,5.8,41
2014/12/2,5:00:00,11,���쐼,7.4,4.3,61.3,0,0,11,���쐼,11.8,45
2014/12/2,6:00:00,11,���쐼,5.1,3.2,62.7,0,0,11,���쐼,13.4,6
2014/12/2,7:00:00,11,���쐼,2.4,3.5,58.1,0,0.01,12,��,5.8,0
2014/12/2,8:00:00,11,���쐼,5.5,3.8,52.1,0,0.07,12,��,11.9,56
2014/12/2,9:00:00,11,���쐼,6.5,3.1,59,0,0.21,11,���쐼,16,41
2014/12/2,10:00:00,11,���쐼,6.9,3.3,50,0,0.23,11,���쐼,11.4,53
2014/12/2,11:00:00,10,�쐼,7.5,2.5,56.9,0,0.27,10,�쐼,13.9,39
2014/12/2,12:00:00,10,�쐼,4.5,0.7,75.2,0,0.15,10,�쐼,9.5,28
2014/12/2,13:00:00,8,��,2.4,-0.4,90.9,0,0.12,10,�쐼,7.4,30
2014/12/2,14:00:00,10,�쐼,5.1,2.2,56.1,0,0.12,10,�쐼,9.5,51
2014/12/2,15:00:00,11,���쐼,5.5,1.6,60.4,0,0.04,11,���쐼,13.2,38
2014/12/2,16:00:00,10,�쐼,8.7,-0.2,78.6,0,0.01,10,�쐼,16.2,46
2014/12/2,17:00:00,10,�쐼,3.7,-0.2,78.4,0,0,11,���쐼,15.8,5
2014/12/2,18:00:00,10,�쐼,10.9,1.9,50.4,0,0,10,�쐼,23,55
2014/12/2,19:00:00,10,�쐼,11.3,2.4,50.5,0,0,10,�쐼,22.3,45
2014/12/2,20:00:00,11,���쐼,9.4,-0.2,79.9,0,0,12,��,20,22
2014/12/2,21:00:00,10,�쐼,7,1.4,59.6,0,0,11,���쐼,13.7,44
2014/12/2,22:00:00,10,�쐼,10,1.7,45.5,0,0,8,��,20,55
2014/12/2,23:00:00,11,���쐼,8.8,1.4,52,0,0,10,�쐼,16.5,12
2014/12/2,0:00:00,11,���쐼,7.6,0.5,64.9,0,0,12,��,16.3,30
2014/12/3,1:00:00,10,�쐼,7,0.9,56.9,0,0,10,�쐼,17.9,22
2014/12/3,2:00:00,11,���쐼,9.3,1.2,42.9,0,0,10,�쐼,17.9,26
2014/12/3,3:00:00,11,���쐼,8.7,0.8,52.6,0,0,10,�쐼,18.3,9
2014/12/3,4:00:00,11,���쐼,1.9,-1.4,73.6,0,0,10,�쐼,16.3,5
2014/12/3,5:00:00,10,�쐼,9.1,1.5,39.8,0,0,10,�쐼,15.7,50
2014/12/3,6:00:00,10,�쐼,4.1,1,39.6,0,0,10,�쐼,16.7,18
2014/12/3,7:00:00,10,�쐼,6.8,1.4,40,0,0.01,10,�쐼,14.6,31
2014/12/3,8:00:00,11,���쐼,7,2.4,39.7,0,0.11,10,�쐼,17.3,29
2014/12/3,9:00:00,10,�쐼,5,1.5,56.2,0,0.2,13,���k��,11.1,6
2014/12/3,10:00:00,10,�쐼,8,2.6,45,0,0.26,12,��,14.2,56
2014/12/3,11:00:00,11,���쐼,6.5,3,42.4,0,0.32,10,�쐼,11.8,12
2014/12/3,12:00:00,11,���쐼,8.3,3.2,44.9,0,0.38,10,�쐼,13.2,50
2014/12/3,13:00:00,10,�쐼,6.9,2.9,41.9,0,0.33,10,�쐼,12.8,5
2014/12/3,14:00:00,10,�쐼,5.4,3.1,39.7,0,0.21,10,�쐼,10.6,31
2014/12/3,15:00:00,10,�쐼,4.4,2.5,46.7,0,0.09,11,���쐼,8.9,25
2014/12/3,16:00:00,10,�쐼,3.9,1.9,44.7,0,0.03,11,���쐼,9.1,10
2014/12/3,17:00:00,11,���쐼,2.8,1,52.3,0,0,10,�쐼,7.4,32
2014/12/3,18:00:00,10,�쐼,2.8,0.9,50.9,0,0,11,���쐼,8,24
2014/12/3,19:00:00,10,�쐼,1.9,0.5,52.4,0,0,10,�쐼,7.8,10
2014/12/3,20:00:00,10,�쐼,3.4,1.8,39.1,0,0,11,���쐼,8.7,17
2014/12/3,21:00:00,10,�쐼,2.2,0.7,50.2,0,0,9,��쐼,11.9,16
2014/12/3,22:00:00,11,���쐼,4.1,1.4,49.1,0,0,12,��,7.8,38
2014/12/3,23:00:00,11,���쐼,3.3,1.2,46.8,0,0,11,���쐼,8.5,30
2014/12/3,0:00:00,11,���쐼,6.8,1.1,49,0,0,13,���k��,12.4,20
2014/12/4,1:00:00,12,��,1.6,-0.5,61.6,0,0,10,�쐼,11.8,10
2014/12/4,2:00:00,14,�k��,1.2,-1.2,58.7,0,0,10,�쐼,5.8,42
2014/12/4,3:00:00,11,���쐼,1.5,-5.2,77.7,0,0,13,���k��,3.2,1
2014/12/4,4:00:00,7,�É�,0.1,-4.4,70.7,0,0,14,�k��,8.1,42
2014/12/4,5:00:00,9,��쐼,1.1,-6.3,81.4,0,0,9,��쐼,23.9,23
2014/12/4,6:00:00,2,�k��,0.9,-4.8,76.2,0,0,1,�k�k��,2.5,49
2014/12/4,7:00:00,11,���쐼,1.3,-4.7,82,0,0.01,2,�k��,3.6,40
2014/12/4,8:00:00,1,�k�k��,1.3,-2.8,79.4,0,0.07,3,���k��,2.8,17
2014/12/4,9:00:00,15,�k�k��,1.2,1.4,62.8,0,0.23,1,�k�k��,8,34
2014/12/4,10:00:00,9,��쐼,1.3,2.9,54.7,0,0.3,10,�쐼,4.7,59
2014/12/4,11:00:00,11,���쐼,6,3.9,42,0,0.52,11,���쐼,10.6,28
2014/12/4,12:00:00,11,���쐼,6.8,3.8,43.2,0,0.52,11,���쐼,11.9,36
2014/12/4,13:00:00,11,���쐼,6.1,3.2,46,0,0.48,11,���쐼,12,35
2014/12/4,14:00:00,12,��,5.4,2.9,47,0,0.37,12,��,8.7,20
2014/12/4,15:00:00,13,���k��,3,2.4,46.3,0,0.21,12,��,7.3,24
2014/12/4,16:00:00,13,���k��,2,1.1,52.5,0,0.03,13,���k��,4.8,47
2014/12/4,17:00:00,14,�k��,1.1,-0.5,54.8,0,0,16,�k,2.7,38
2014/12/4,18:00:00,14,�k��,1.2,-3.9,80.5,0,0,11,���쐼,3,33
2014/12/4,19:00:00,13,���k��,1.5,-4.3,77.8,0,0,12,��,3.7,52
2014/12/4,20:00:00,13,���k��,1.5,-5.2,84.6,0,0,12,��,3,46
2014/12/4,21:00:00,13,���k��,1.8,-5.7,82,0,0,13,���k��,3.7,43
2014/12/4,22:00:00,13,���k��,1.7,-6.3,86.9,0,0,12,��,4.2,8
2014/12/4,23:00:00,14,�k��,2.5,-4.9,76.1,0,0,13,���k��,3.7,33
2014/12/4,0:00:00,13,���k��,1.4,-5.2,76.2,0,0,14,�k��,3.7,30
2014/12/5,1:00:00,13,���k��,1.7,-3.6,70.7,0,0,3,���k��,3.4,4
2014/12/5,2:00:00,13,���k��,3.6,-3,70.3,0,0,14,�k��,5.8,51
2014/12/5,3:00:00,13,���k��,3.9,-2.5,65.2,0,0,14,�k��,6.3,41
2014/12/5,4:00:00,13,���k��,4.3,-2.5,66.3,0,0,2,�k��,8.2,22
2014/12/5,5:00:00,12,��,3.3,-2.8,68.5,0,0,11,���쐼,6.9,0
2014/12/5,6:00:00,13,���k��,3.1,-2.7,64.8,0,0,5,���쓌,5.8,8
2014/12/5,7:00:00,13,���k��,4.2,-2.8,61.1,0,0.01,13,���k��,8.1,43
2014/12/5,8:00:00,12,��,4.2,-3,60.6,0,0.02,16,�k,7.7,19
2014/12/5,9:00:00,12,��,2.5,-2.3,59.9,0,0.07,12,��,4.7,3
2014/12/5,10:00:00,12,��,1.1,-1.7,61.7,0,0.12,11,���쐼,4,8
2014/12/5,11:00:00,8,��,0.7,-0.7,65.1,0,0.24,3,���k��,3,37
2014/12/5,12:00:00,10,�쐼,0.7,0.8,54.3,0,0.45,12,��,23.8,54
2014/12/5,13:00:00,7,��쓌,2,1,57.6,0,0.46,7,��쓌,4.3,37
2014/12/5,14:00:00,7,��쓌,1.7,-0.2,63.5,0,0.28,7,��쓌,4,12
2014/12/5,15:00:00,8,�É�,0,0.1,63.8,0,0.07,7,��쓌,2.9,12
2014/12/5,16:00:00,5,�É�,0.2,-1.9,75.7,0,0.05,5,���쓌,2.7,56
2014/12/5,17:00:00,1,�É�,0.2,-3.5,87,0,0,15,�k�k��,2.8,1
2014/12/5,18:00:00,11,���쐼,1.8,-6.5,88.7,0,0,11,���쐼,2.5,0
2014/12/5,19:00:00,10,�쐼,1.1,-5.1,86.2,0,0,11,���쐼,2.8,7
2014/12/5,20:00:00,13,���k��,2.1,-7,89.9,0,0,8,��,4.2,6
2014/12/5,21:00:00,12,��,2.6,-7,87.9,0,0,12,��,4.1,55
2014/12/5,22:00:00,11,���쐼,1.8,-6,88.9,0,0,11,���쐼,4.4,18
2014/12/5,23:00:00,11,���쐼,2.1,-7,92,0,0,12,��,3.5,58
2014/12/5,0:00:00,11,���쐼,1.2,-4.9,96.5,0,0,10,�쐼,5.2,31
2014/12/6,1:00:00,13,���k��,1.3,-4.8,96.7,0,0,12,��,2.5,45
2014/12/6,2:00:00,13,���k��,2.1,-4.8,97,0,0,14,�k��,3.9,50
2014/12/6,3:00:00,13,���k��,2,-5.6,94.1,0,0,13,���k��,4.2,1
2014/12/6,4:00:00,11,���쐼,2.3,-7.9,95.8,0,0,12,��,3.5,26
2014/12/6,5:00:00,12,��,2.7,-8.8,95.6,0,0,4,��,4.2,45
2014/12/6,6:00:00,12,��,2,-10.4,96.5,0,0,11,���쐼,3.7,6
2014/12/6,7:00:00,13,���k��,2.4,-10.6,97,0,0.01,14,�k��,3.3,55
2014/12/6,8:00:00,12,��,2,-10,95.3,0,0.12,2,�k��,3.2,59
2014/12/6,9:00:00,15,�k�k��,0.7,-6.9,86.5,0,0.25,12,��,3.2,0
2014/12/6,10:00:00,10,�쐼,0.4,-2.8,55,0,0.42,12,��,7,7
2014/12/6,11:00:00,13,���k��,1.7,-1.5,44.4,0.5,0.5,15,�k�k��,4.7,59
2014/12/6,12:00:00,11,���쐼,4.2,-1.5,44.3,0,0.46,12,��,7.6,49
2014/12/6,13:00:00,13,���k��,2.4,-1.5,43.4,0,0.39,11,���쐼,6.9,43
2014/12/6,14:00:00,10,�쐼,3.4,-1.2,35.4,0,0.27,12,��,7.1,21
2014/12/6,15:00:00,11,���쐼,2.6,-2.8,43.7,0,0.19,10,�쐼,6.2,14
2014/12/6,16:00:00,13,���k��,1.6,-4.1,51.8,0,0.02,12,��,3.2,29
2014/12/6,17:00:00,13,���k��,0.4,-6.2,65.5,0,0,13,���k��,2.4,8
2014/12/6,18:00:00,13,���k��,1.6,-6.9,71.5,0,0,11,���쐼,2.9,11
2014/12/6,19:00:00,14,�k��,2.4,-6.1,63.6,0,0,12,��,5.1,17
2014/12/6,20:00:00,12,��,2.1,-10.6,78.2,0,0,13,���k��,4,1
2014/12/6,21:00:00,12,��,1.5,-9.9,75.2,0,0,10,�쐼,3.7,31
2014/12/6,22:00:00,12,��,1.3,-12.2,87.8,0,0,12,��,2.5,13
2014/12/6,23:00:00,11,���쐼,0.8,-12.5,85.3,0,0,12,��,2.4,16
2014/12/6,0:00:00,13,���k��,2.5,-12.3,80.6,0,0,13,���k��,3.9,45
2014/12/7,1:00:00,13,���k��,2.6,-11.6,73.1,0,0,13,���k��,4.3,18
2014/12/7,2:00:00,13,���k��,1,-13.4,83.3,0,0,11,���쐼,3.6,14
2014/12/7,3:00:00,12,��,2.5,-14.9,88.7,0,0,12,��,3.7,19
2014/12/7,4:00:00,12,��,1.4,-14.5,83.8,0,0,12,��,3.4,14
2014/12/7,5:00:00,12,��,2.4,-10.9,75,0,0,13,���k��,3.2,50
2014/12/7,6:00:00,12,��,3,-12.6,76.9,0,0.01,13,���k��,4.1,40
2014/12/7,7:00:00,12,��,2,-12.2,83.2,0,0.01,14,�k��,3.6,23
2014/12/7,8:00:00,13,���k��,0.9,-8.6,67.6,0,0.13,12,��,3.9,39
2014/12/7,9:00:00,12,��,2.3,-6.5,69.2,0,0.3,12,��,3.8,25
2014/12/7,10:00:00,12,��,1,-1.7,49.1,0,0.44,12,��,3.9,8
2014/12/7,11:00:00,14,�k��,6.3,0.4,35.6,0,0.51,14,�k��,11.3,30
2014/12/7,12:00:00,13,���k��,7.1,0.9,38.6,0,0.52,14,�k��,12.1,56
2014/12/7,13:00:00,14,�k��,5.5,1.3,40.9,0,0.48,7,��쓌,14.2,31
2014/12/7,14:00:00,14,�k��,7,1.3,42.3,0,0.38,14,�k��,13.4,38
2014/12/7,15:00:00,14,�k��,4.7,0.9,45.5,0,0.23,14,�k��,11,0
2014/12/7,16:00:00,14,�k��,3,-0.7,54.8,0,0.06,13,���k��,10.1,1
2014/12/7,17:00:00,13,���k��,1.9,-2.7,63.8,0,0,12,��,4.8,7
2014/12/7,18:00:00,12,��,2.3,-3.5,72.2,0,0,14,�k��,3.3,28
2014/12/7,19:00:00,12,��,2.6,-5.9,82,0,0,12,��,3.1,32
2014/12/7,20:00:00,10,�쐼,1.1,-9.7,88.4,0,0,8,��,3.4,7
2014/12/7,21:00:00,12,��,1.1,-8.8,90.1,0,0,11,���쐼,3.6,32
2014/12/7,22:00:00,11,���쐼,2.4,-9.8,89.1,0,0,13,���k��,5.1,29
2014/12/7,23:00:00,12,��,2.2,-9.8,91.9,0,0,11,���쐼,4.5,42
2014/12/7,0:00:00,12,��,2.5,-10.1,91.8,0,0,11,���쐼,3.9,36
2014/12/8,1:00:00,12,��,0.8,-10.5,90.9,0,0,10,�쐼,4.4,21
2014/12/8,2:00:00,13,���k��,1.6,-10.5,87.1,0,0,12,��,3.7,28
2014/12/8,3:00:00,12,��,2.5,-10.4,86.9,0,0,11,���쐼,5,11
2014/12/8,4:00:00,13,���k��,2.4,-9.7,89.3,0,0,12,��,4.8,1
2014/12/8,5:00:00,12,��,0.7,-10.7,86.1,0,0,12,��,5,9
2014/12/8,6:00:00,12,��,2.4,-10.4,86.1,0,0,11,���쐼,3.1,54
2014/12/8,7:00:00,12,��,1.8,-10.2,84.4,0,0.01,13,���k��,4.1,25
2014/12/8,8:00:00,12,��,2.2,-7.5,82.7,0,0.11,5,���쓌,4,43
2014/12/8,9:00:00,12,��,1.7,-4.1,76,0,0.24,16,�k,3.2,8
2014/12/8,10:00:00,12,��,1.4,-0.7,64.7,0,0.43,13,���k��,3.1,18
2014/12/8,11:00:00,9,��쐼,0.3,1.6,49.1,0,0.5,12,��,2.4,1
2014/12/8,12:00:00,6,�쓌,2,2.3,44,0,0.51,5,���쓌,4,44
2014/12/8,13:00:00,7,��쓌,2.1,2.4,53.9,0,0.47,7,��쓌,3.3,50
2014/12/8,14:00:00,8,��,1.9,1.7,50.3,0,0.31,8,��,3,10
2014/12/8,15:00:00,10,�쐼,2,1,55.8,0,0.17,10,�쐼,3.5,38
2014/12/8,16:00:00,12,��,1.2,-2.2,76.5,0,0.04,10,�쐼,2.9,1
2014/12/8,17:00:00,13,���k��,1.6,-3.3,73.5,0,0,7,��쓌,3.4,47
2014/12/8,18:00:00,12,��,1.5,-5.3,83.5,0,0,13,���k��,3.3,12
2014/12/8,19:00:00,14,�k��,1.2,-5.6,81.3,0,0,16,�k,3.4,34
2014/12/8,20:00:00,12,��,1.4,-6.9,87.2,0,0,13,���k��,2,44
2014/12/8,21:00:00,12,��,1.5,-7.7,91,0,0,10,�쐼,2.5,26
2014/12/8,22:00:00,12,��,1.6,-7.5,86.6,0,0,12,��,3.2,25
2014/12/8,23:00:00,12,��,1.8,-8.4,91.7,0,0,12,��,2.5,57
2014/12/8,0:00:00,13,���k��,1.8,-8.7,90.1,0,0,12,��,3.2,49
2014/12/9,1:00:00,12,��,2.1,-8.5,90.6,0,0,12,��,3.2,58
2014/12/9,2:00:00,12,��,2,-9.1,88.8,0,0,12,��,4,32
2014/12/9,3:00:00,12,��,2.5,-7.8,89.9,0,0,13,���k��,4.2,59
2014/12/9,4:00:00,13,���k��,3.1,-6.6,79.5,0,0,5,���쓌,4.9,55
2014/12/9,5:00:00,12,��,2.2,-8.7,88.6,0,0,11,���쐼,3.6,17
2014/12/9,6:00:00,12,��,2.3,-9.4,90.3,0,0,11,���쐼,3,56
2014/12/9,7:00:00,12,��,2.8,-9.2,86.8,0,0.01,12,��,3.5,59
2014/12/9,8:00:00,14,�k��,2.3,-5.9,77.4,0,0.13,14,�k��,4.7,59
2014/12/9,9:00:00,12,��,1.5,-3.4,78.7,0,0.28,14,�k��,4.4,3
2014/12/9,10:00:00,13,���k��,1.2,-0.2,60.1,0,0.42,13,���k��,2.4,28
2014/12/9,11:00:00,2,�k��,0.4,1.4,45.7,0,0.5,12,��,2.1,4
2014/12/9,12:00:00,5,���쓌,2.5,2.6,51.3,0,0.52,5,���쓌,4.6,34
2014/12/9,13:00:00,5,���쓌,2.7,2,50.3,0,0.47,5,���쓌,5.3,21
2014/12/9,14:00:00,6,�쓌,2.2,2,50.3,0,0.36,5,���쓌,4.5,5
2014/12/9,15:00:00,6,�쓌,1.5,1.2,52.1,0,0.21,5,���쓌,3.8,0
2014/12/9,16:00:00,12,��,1.1,-2,72.8,0,0.05,6,�쓌,2.1,0
2014/12/9,17:00:00,12,��,2,-3.5,79.6,0,0,4,��,2.5,53
2014/12/9,18:00:00,13,���k��,2.1,-3.8,78.9,0,0,12,��,4.9,7
2014/12/9,19:00:00,14,�k��,1.8,-2.4,70.7,0,0,2,�k��,3.8,34
2014/12/9,20:00:00,14,�k��,2.6,-3,71.6,0,0,11,���쐼,4.7,36
2014/12/9,21:00:00,12,��,2.9,-4.8,80.3,0,0,6,�쓌,5,11
2014/12/9,22:00:00,12,��,3.2,-5.2,77.8,0,0,13,���k��,4.9,47
2014/12/9,23:00:00,12,��,2.6,-6.1,82.6,0,0,12,��,5.1,24
2014/12/9,0:00:00,12,��,3.1,-7.3,81.9,0,0,12,��,4.5,54
2014/12/10,1:00:00,12,��,2.6,-7.2,82.7,0,0,16,�k,4.3,26
2014/12/10,2:00:00,12,��,3.7,-5.8,78.1,0,0,9,��쐼,5.3,8
2014/12/10,3:00:00,14,�k��,0.6,-8.8,85.7,0,0,12,��,4,5
2014/12/10,4:00:00,11,���쐼,1,-10.1,91.4,0,0,10,�쐼,3.5,8
2014/12/10,5:00:00,11,���쐼,1.8,-10.4,92.4,0,0,13,���k��,4.2,26
2014/12/10,6:00:00,12,��,1.1,-11.2,91,0,0,11,���쐼,3.9,3
2014/12/10,7:00:00,13,���k��,1.1,-10.6,93.9,0,0.01,12,��,2.3,44
2014/12/10,8:00:00,12,��,2.2,-7.3,85,0,0.12,11,���쐼,4.6,30
2014/12/10,9:00:00,12,��,2,-3.6,76.7,0,0.27,10,�쐼,3.5,6
2014/12/10,10:00:00,13,���k��,1,-1.5,70,0,0.28,11,���쐼,2.7,42
2014/12/10,11:00:00,15,�k�k��,2,-0.1,60.4,0,0.28,3,���k��,3.1,48
2014/12/10,12:00:00,3,���k��,0.5,1,49.7,0,0.35,15,�k�k��,17.6,44
2014/12/10,13:00:00,4,��,0.6,0.8,51.4,0,0.23,5,���쓌,3.4,24
2014/12/10,14:00:00,7,��쓌,1.2,0.2,49.3,0,0.16,7,��쓌,2.6,9
2014/12/10,15:00:00,3,���k��,0.6,-0.5,59.1,0,0.07,4,��,2.5,42
2014/12/10,16:00:00,1,�k�k��,1.4,-2.2,65.7,0,0.04,1,�k�k��,1.7,59
2014/12/10,17:00:00,12,��,0.9,-4,82.6,0,0,2,�k��,2,20
2014/12/10,18:00:00,12,��,2,-4.2,82.5,0,0,15,�k�k��,2.6,3
2014/12/10,19:00:00,14,�k��,1.9,-3.6,70.7,0,0,3,���k��,3.6,43
2014/12/10,20:00:00,12,��,2.9,-5.2,80.6,0,0,12,��,3.9,56
2014/12/10,21:00:00,14,�k��,1.4,-4.5,78.3,0,0,16,�k,3.3,10
2014/12/10,22:00:00,13,���k��,1.9,-4.5,78.2,0,0,14,�k��,3.7,49
2014/12/10,23:00:00,12,��,1.9,-4.6,81.2,0,0,14,�k��,3.1,2
2014/12/10,0:00:00,12,��,2.4,-4.8,82.6,0,0,11,���쐼,3.2,17
2014/12/11,1:00:00,13,���k��,1.7,-5,85.4,0,0,16,�k,2.8,34
2014/12/11,2:00:00,12,��,2.3,-4.8,80.7,0,0,1,�k�k��,3.4,55
2014/12/11,3:00:00,13,���k��,2.1,-4.7,81.2,0,0,16,�k,3.5,17
2014/12/11,4:00:00,13,���k��,2.5,-4.7,80.6,0,0,16,�k,4.4,8
2014/12/11,5:00:00,14,�k��,1.4,-4.6,81.6,0,0,14,�k��,5,5
2014/12/11,6:00:00,13,���k��,2.6,-4.3,85.7,0,0,12,��,4.7,17
2014/12/11,7:00:00,12,��,3.4,-4.2,95.1,0,0,12,��,5.1,52
2014/12/11,8:00:00,13,���k��,4.4,-3.8,92.7,0,0.02,16,�k,7,24
2014/12/11,9:00:00,13,���k��,3.9,-3.1,87.9,0,0.06,11,���쐼,7.9,20
2014/12/11,10:00:00,14,�k��,2.2,-3,93.2,0,0.07,14,�k��,6.1,4
2014/12/11,11:00:00,13,���k��,3.6,-2.3,94.1,0,0.08,14,�k��,6.7,20
2014/12/11,12:00:00,13,���k��,1.6,-1.5,95,0.5,0.09,13,���k��,6.6,5
2014/12/11,13:00:00,13,���k��,1.9,-1.2,94.5,1.5,0.07,14,�k��,4.1,36
2014/12/11,14:00:00,10,�쐼,1.6,-0.8,96,1,0.08,11,���쐼,4.3,44
2014/12/11,15:00:00,13,���k��,1.7,-0.4,97.1,0.5,0.08,13,���k��,3.3,27
2014/12/11,16:00:00,13,���k��,1.3,-0.8,97.3,0.5,0.02,14,�k��,3,29
2014/12/11,17:00:00,12,��,2.6,-1.3,96.4,0,0,12,��,5.1,49
2014/12/11,18:00:00,13,���k��,2.8,-1.6,97.9,0,0,12,��,4.9,50
2014/12/11,19:00:00,11,���쐼,0.5,-2.4,95.3,0,0,11,���쐼,5.6,26
2014/12/11,20:00:00,13,���k��,3,-0.6,93.2,0,0,14,�k��,4.9,54
2014/12/11,21:00:00,12,��,2.6,-0.7,93.2,0,0,14,�k��,4.5,0
2014/12/11,22:00:00,13,���k��,2,-1.3,89.7,0,0,12,��,3.8,10
2014/12/11,23:00:00,13,���k��,1.5,-4.8,96.5,0,0,16,�k,3.4,10
2014/12/11,0:00:00,10,�쐼,1.5,-6.3,97.8,0,0,8,��,2.2,20
2014/12/12,1:00:00,11,���쐼,1.3,-7,97.2,0,0,13,���k��,2.7,37
2014/12/12,2:00:00,12,��,2,-8.3,95.8,0,0,11,���쐼,3.5,59
2014/12/12,3:00:00,11,���쐼,2.4,-7.9,95,0,0,11,���쐼,4.1,13
2014/12/12,4:00:00,14,�k��,0.4,-6.8,94.4,0,0,12,��,4.6,11
2014/12/12,5:00:00,12,��,2.5,-7.3,94.8,0,0,11,���쐼,3.4,58
2014/12/12,6:00:00,12,��,3.1,-7.8,94.1,0,0,12,��,4.4,33
2014/12/12,7:00:00,16,�k,0.9,-9.2,93.8,0,0.01,5,���쓌,3.2,4
2014/12/12,8:00:00,13,���k��,1.3,-6.7,92.3,0,0.15,12,��,3.7,34
2014/12/12,9:00:00,13,���k��,1.2,-4.4,91.6,0,0.33,12,��,3.4,26
2014/12/12,10:00:00,13,���k��,2.5,-1,79.1,0,0.44,14,�k��,4.8,56
2014/12/12,11:00:00,11,�É�,0.1,0.4,69.2,0,0.47,13,���k��,2.9,0
2014/12/12,12:00:00,3,�É�,0.1,1.4,50.2,0.5,0.5,14,�k��,3,13
2014/12/12,13:00:00,6,�쓌,2.5,1.1,62.5,0,0.45,5,���쓌,4.1,45
2014/12/12,14:00:00,5,�É�,0.2,1.5,60.7,0,0.36,7,��쓌,2.6,18
2014/12/12,15:00:00,5,���쓌,0.9,1.3,70.3,0,0.2,5,���쓌,1.5,0
2014/12/12,16:00:00,2,�k��,0.7,-2.5,75.5,0,0.04,3,���k��,3.9,9
2014/12/12,17:00:00,12,��,0.8,-5.6,90.8,0,0,12,��,1.5,34
2014/12/12,18:00:00,12,��,1.1,-6.7,94.4,0,0,12,��,2.2,43
2014/12/12,19:00:00,12,��,1.3,-7.7,94.1,0,0,10,�쐼,2.4,42
2014/12/12,20:00:00,12,��,1.9,-9,92.3,0,0,12,��,2.8,55
2014/12/12,21:00:00,13,���k��,2.4,-9,91.4,0,0,12,��,3.4,54
2014/12/12,22:00:00,13,���k��,2,-9.6,89.9,0,0,11,���쐼,5.1,47
2014/12/12,23:00:00,12,��,2,-10,91.8,0,0,10,�쐼,3.7,0
2014/12/12,0:00:00,13,���k��,2.5,-10.4,91.5,0,0,12,��,3.5,13
2014/12/13,1:00:00,13,���k��,1.9,-10.6,92.1,0,0,13,���k��,3.9,4
2014/12/13,2:00:00,13,���k��,2.7,-10.5,89.3,0,0,13,���k��,4.1,33
2014/12/13,3:00:00,12,��,1.3,-11.7,91.5,0,0,12,��,5.3,21
2014/12/13,4:00:00,12,��,1.7,-12.6,91.2,0,0,12,��,4.3,32
2014/12/13,5:00:00,13,���k��,2.4,-12.6,90.8,0,0,12,��,3.8,22
2014/12/13,6:00:00,14,�k��,2.1,-11.5,86.6,0,0,3,���k��,3.6,49
2014/12/13,7:00:00,11,���쐼,2.2,-12.8,86,0,0.01,12,��,4.2,43
2014/12/13,8:00:00,12,��,1.4,-9.7,85.8,0,0.12,12,��,3.4,14
2014/12/13,9:00:00,11,���쐼,5.3,-1.6,51.3,0,0.3,11,���쐼,8.4,51
2014/12/13,10:00:00,11,���쐼,4.7,-1.1,48,0,0.34,11,���쐼,8.6,27
2014/12/13,11:00:00,10,�쐼,4.7,-0.9,47.4,0,0.38,11,���쐼,10.2,51
2014/12/13,12:00:00,11,���쐼,4.5,-0.9,45.6,0,0.27,10,�쐼,11.4,15
2014/12/13,13:00:00,12,��,5.5,-1,44.2,0,0.25,11,���쐼,10.7,12
2014/12/13,14:00:00,11,���쐼,6,-1.4,38.9,0,0.3,10,�쐼,10.5,22
2014/12/13,15:00:00,14,�k��,2.1,-1.9,45.7,0,0.2,14,�k��,10,19
2014/12/13,16:00:00,14,�k��,1.8,-4,61.6,0,0.05,15,�k�k��,4.8,45
2014/12/13,17:00:00,14,�k��,1.6,-5.2,66.5,0,0,14,�k��,2.7,12
2014/12/13,18:00:00,11,���쐼,1.6,-8,80.9,0,0,9,��쐼,2.5,25
2014/12/13,19:00:00,12,��,2,-8.7,79.2,0,0,12,��,3.1,17
2014/12/13,20:00:00,13,���k��,2.9,-9.2,80.6,0,0,13,���k��,4.7,51
2014/12/13,21:00:00,13,���k��,2.4,-11,86.8,0,0,11,���쐼,4.9,2
2014/12/13,22:00:00,11,���쐼,2.5,-11.3,90.6,0,0,6,�쓌,3.7,44
2014/12/13,23:00:00,11,���쐼,2.6,-11.7,86.7,0,0,12,��,5.5,16
2014/12/13,0:00:00,12,��,2.6,-12.2,85,0,0,12,��,4.6,22
2014/12/14,1:00:00,13,���k��,2.5,-12.9,84.1,0,0,5,���쓌,5.9,38
2014/12/14,2:00:00,13,���k��,1.8,-13.5,83.9,0,0,9,��쐼,3.7,36
2014/12/14,3:00:00,12,��,3.1,-14,84,0,0,10,�쐼,6.2,44
2014/12/14,4:00:00,11,���쐼,1.9,-14.4,83.5,0,0,12,��,5,18
2014/12/14,5:00:00,12,��,2.2,-14.3,82.7,0,0,9,��쐼,4.8,34
2014/12/14,6:00:00,12,��,2.7,-14.9,83.6,0,0,10,�쐼,5.6,21
2014/12/14,7:00:00,14,�k��,2.1,-14.9,84.1,0,0.01,12,��,3.9,28
2014/12/14,8:00:00,12,��,2.6,-9.5,72.5,0,0.11,9,��쐼,4.2,50
2014/12/14,9:00:00,12,��,1.7,-5.9,58.8,0,0.28,12,��,6,15
2014/12/14,10:00:00,13,���k��,2.1,-3.8,41.3,0,0.42,4,��,4.4,41
2014/12/14,11:00:00,15,�k�k��,1.2,-3.4,32.4,0,0.49,11,���쐼,4.2,0
2014/12/14,12:00:00,12,��,4,-2.5,31.6,0,0.52,12,��,9.1,25
2014/12/14,13:00:00,11,���쐼,6.3,-2.8,39.6,0,0.47,12,��,9.9,54
2014/12/14,14:00:00,12,��,5,-2.5,33.7,0,0.38,12,��,9.1,8
2014/12/14,15:00:00,14,�k��,3.7,-2.9,37.5,0,0.23,12,��,8,5
2014/12/14,16:00:00,13,���k��,1.6,-4.2,43.6,0,0.07,1,�k�k��,7.4,8
2014/12/14,17:00:00,13,���k��,1.2,-7,65.7,0,0,13,���k��,2.4,7
2014/12/14,18:00:00,14,�É�,0.2,-10.1,75.4,0,0,11,���쐼,3.6,10
2014/12/14,19:00:00,13,���k��,1.1,-11.2,79.8,0,0,10,�쐼,11.2,30
2014/12/14,20:00:00,13,���k��,0.8,-11.7,81,0,0,12,��,2.2,19
2014/12/14,21:00:00,13,���k��,1.4,-12.1,83.1,0,0,11,���쐼,3,19
2014/12/14,22:00:00,11,���쐼,3.3,-12.3,78.8,0,0,12,��,4,54
2014/12/14,23:00:00,12,��,1.8,-12.9,81.1,0,0,11,���쐼,3.5,41
2014/12/14,0:00:00,11,���쐼,1.9,-13.1,80.1,0,0,10,�쐼,3.2,32
2014/12/15,1:00:00,13,���k��,2,-12.8,80.5,0,0,12,��,3.1,23
2014/12/15,2:00:00,12,��,1.8,-13,76.3,0,0,3,���k��,3,12
2014/12/15,3:00:00,14,�k��,1.5,-13,82,0,0,10,�쐼,2.5,18
2014/12/15,4:00:00,12,��,1.9,-12.8,80.5,0,0,12,��,3.1,54
2014/12/15,5:00:00,12,��,0.6,-12.7,81.4,0,0,11,���쐼,2.5,18
2014/12/15,6:00:00,12,��,4.1,-12,79.2,0,0,12,��,5.2,53
2014/12/15,7:00:00,12,��,3.5,-10.1,75.4,0,0.01,2,�k��,5.2,54
2014/12/15,8:00:00,12,��,4.2,-8.3,71.4,0,0.11,12,��,6.2,53
2014/12/15,9:00:00,13,���k��,4.1,-5,61.3,0,0.27,13,���k��,7,47
2014/12/15,10:00:00,14,�k��,3.8,-2.2,49.4,0,0.4,16,�k,7.7,29
2014/12/15,11:00:00,13,���k��,5.2,-0.7,40.2,0,0.49,2,�k��,9.3,58
2014/12/15,12:00:00,14,�k��,5.1,-0.2,36.1,0,0.51,13,���k��,11,37
2014/12/15,13:00:00,14,�k��,5.1,-0.4,33.9,0,0.47,1,�k�k��,10.6,46
2014/12/15,14:00:00,15,�k�k��,5.1,-0.2,34.7,0,0.37,1,�k�k��,9.5,44
2014/12/15,15:00:00,15,�k�k��,4.5,-0.4,32.7,0,0.23,1,�k�k��,9.2,13
2014/12/15,16:00:00,15,�k�k��,3.9,-1.4,37.5,0,0.06,14,�k��,8.7,5
2014/12/15,17:00:00,15,�k�k��,2.5,-2.7,41,0,0,15,�k�k��,5.7,30
2014/12/15,18:00:00,15,�k�k��,2.3,-3,45.4,0,0,2,�k��,6,38
2014/12/15,19:00:00,16,�k,3.6,-3.3,47.7,0,0,1,�k�k��,6.3,52
2014/12/15,20:00:00,12,��,1.5,-7.1,63.9,0,0,1,�k�k��,5.1,4
2014/12/15,21:00:00,11,���쐼,2.2,-9.2,72.7,0,0,14,�k��,3.7,7
2014/12/15,22:00:00,12,��,2.7,-8.2,72.1,0,0,12,��,3.9,57
2014/12/15,23:00:00,13,���k��,3.3,-7.9,69.4,0,0,12,��,4.7,5
2014/12/15,0:00:00,12,��,2.3,-11.5,80.7,0,0,13,���k��,4.3,3
2014/12/16,1:00:00,12,��,1.9,-11.6,83.6,0,0,12,��,3.8,19
2014/12/16,2:00:00,12,��,2.5,-10.4,80,0,0,12,��,3.6,52
2014/12/16,3:00:00,12,��,2.2,-11.5,84.3,0,0,9,��쐼,3.3,59
2014/12/16,4:00:00,12,��,2.1,-10.6,82.4,0,0,1,�k�k��,3.4,4
2014/12/16,5:00:00,12,��,2.1,-9.9,80.9,0,0,11,���쐼,3,55
2014/12/16,6:00:00,13,���k��,1.6,-8.9,72.7,0,0,13,���k��,3.8,23
2014/12/16,7:00:00,13,���k��,1.9,-9.9,74.8,0,0.01,16,�k,4.7,14
2014/12/16,8:00:00,13,���k��,3.8,-10.2,74.1,0,0.04,13,���k��,5.6,59
2014/12/16,9:00:00,13,���k��,2.8,-7.6,68.4,0,0.21,11,���쐼,6.3,38
2014/12/16,10:00:00,14,�k��,2.5,-4.5,61.5,0,0.37,14,�k��,5.1,19
2014/12/16,11:00:00,15,�k�k��,0.9,-1.4,60.8,0,0.45,13,���k��,3.1,0
2014/12/16,12:00:00,13,���k��,0.5,-0.9,70.7,0,0.19,11,���쐼,4.2,48
2014/12/16,13:00:00,14,�k��,2.4,-3,70.3,0,0.12,13,���k��,4.4,58
2014/12/16,14:00:00,14,�k��,1.9,-4.4,92.1,0,0.09,14,�k��,5.2,33
2014/12/16,15:00:00,13,���k��,3.3,-4.4,94.7,0,0.04,12,��,5.4,49
2014/12/16,16:00:00,13,���k��,3.7,-4.5,95.9,0,0.01,7,��쓌,6.5,30
2014/12/16,17:00:00,6,�쓌,7.4,2.4,95.7,0,0,6,�쓌,12.8,47
2014/12/16,18:00:00,6,�쓌,7.5,2.3,95.1,3.5,0,7,��쓌,15.4,47
2014/12/16,19:00:00,6,�쓌,8.3,2.5,94.1,2.5,0,6,�쓌,16.7,47
2014/12/16,20:00:00,6,�쓌,10,2.3,94.8,2,0,6,�쓌,17.4,54
2014/12/16,21:00:00,5,���쓌,9.4,3,95.2,3,0,6,�쓌,17.2,6
2014/12/16,22:00:00,5,���쓌,7.7,2.9,95.3,4,0,6,�쓌,14.7,45
2014/12/16,23:00:00,6,�쓌,6.9,2.7,95.2,4.5,0,6,�쓌,14.1,2
2014/12/16,0:00:00,5,���쓌,6.2,1.7,96.4,5,0,6,�쓌,11.3,3
2014/12/17,1:00:00,5,���쓌,5.5,1.9,96.3,6,0,5,���쓌,10.7,47
2014/12/17,2:00:00,1,�k�k��,2.3,0.2,99.8,2,0,5,���쓌,8.1,5
2014/12/17,3:00:00,14,�k��,3.5,0.1,100,0,0,14,�k��,6,59
2014/12/17,4:00:00,13,���k��,3.8,0.4,100,0.5,0,10,�쐼,8,29
2014/12/17,5:00:00,16,�k,4.7,0.9,97.1,0,0,1,�k�k��,9.5,44
2014/12/17,6:00:00,13,���k��,4,1,93.2,0,0,1,�k�k��,8.4,1
2014/12/17,7:00:00,12,��,6.2,0.9,94,0,0.01,12,��,9.1,59
2014/12/17,8:00:00,12,��,9.9,0.1,74.7,1,0.05,11,���쐼,14.7,50
2014/12/17,9:00:00,12,��,10.1,-0.2,69.2,1,0.09,11,���쐼,16.2,59
2014/12/17,10:00:00,12,��,12.2,-0.3,66.2,1,0.15,11,���쐼,20.2,54
2014/12/17,11:00:00,11,���쐼,10.5,-0.5,61.7,0.5,0.23,12,��,18.2,11